Weather History for FBMN - May, 2013

Change the Weather History Date:

Friday, May 3, 2013

  Actual Average Record
Temperature  
Mean Temperature 66 °F -  
Max Temperature 84 °F 81 °F 91 °F (1997)
Min Temperature 49 °F 52 °F 49 °F (2013)
Cooling Degree Days 2    
Growing Degree Days 16 (Base 50)    
Moisture  
Dew Point 40 °F    
Average Humidity 36    
Maximum Humidity 58    
Minimum Humidity 15    
Precipitation  
Precipitation 0.00 in - - ()
Sea Level Pressure  
Sea Level Pressure 30.14 in    
Wind  
Wind Speed 6 mph ()    
Max Wind Speed 12 mph    
Max Gust Speed -    
Visibility 6.0 miles    
Events      
Averages and records for this station are not official NWS values.
T = Trace of Precipitation, MM = Missing Value Source: Averaged Metar Reports

Daily Weather History Graph

Daily Weather History Graph

Search for Another Location

Airport or City:

Trip Planner

Search our weather history database for the weather conditions in past years. The results will help you decide how hot, cold, wet, or windy it might be!

Date:

Astronomy

May. 03, 2013 Rise Set
Actual Time 6:43 AM CAT 6:03 PM CAT
Civil Twilight 6:20 AM CAT 6:26 PM CAT
Nautical Twilight 5:53 AM CAT 6:52 PM CAT
Astronomical Twilight 5:27 AM CAT 7:18 PM CAT
Moon 12:46 AM CAT (5/3) 1:37 PM CAT (5/3)
Length of Visible Light 12h 05m
Length of Day
11h 20m
Last Quarter, 40% of the Moon is Illuminated
May 3
Last Quarter
May 10
New
May 18
First Quarter
May 25
Full
May 31
Last Quarter

Hourly Weather History & Observations

Time (CAT) Temp. Dew Point Humidity Pressure Visibility Wind Dir Wind Speed Gust Speed Precip Events Conditions
12:00 AM 60.8 °F 37.4 °F 42% 30.18 in - SSE 8.1 mph - N/A   Clear
1:00 AM 57.2 °F 41.0 °F 55% 30.15 in - SE 6.9 mph - N/A   Clear
2:00 AM 58 °F 36 °F 32%  in 6 mi SE 6.9 mph - -   Partly Cloudy
2:00 AM 57.2 °F 35.6 °F 44% 30.15 in - SE 6.9 mph - N/A   Clear
3:00 AM 57.2 °F 35.6 °F 44% 30.15 in - East 3.5 mph - N/A   Clear
5:00 AM 53.6 °F 37.4 °F 54% 30.15 in - SE 3.5 mph - N/A   Clear
6:00 AM 53.6 °F 37.4 °F 54% 30.15 in - SE 6.9 mph - N/A   Clear
7:00 AM 51.8 °F 37.4 °F 58% 30.18 in - SE 9.2 mph - N/A   Clear
8:00 AM 58 °F 37 °F 34%  in 6 mi East 11.5 mph - -   Partly Cloudy
9:00 AM 64.4 °F 39.2 °F 40% 30.21 in - East 9.2 mph - N/A   Clear
10:00 AM 71.6 °F 39.2 °F 31% 30.21 in - East 9.2 mph - N/A   Clear
11:00 AM 77.0 °F 41.0 °F 28% 30.21 in - East 9.2 mph - N/A   Clear
12:00 PM 80.6 °F 41.0 °F 24% 30.18 in - SE 3.5 mph - N/A   Clear
1:00 PM 80.6 °F 42.8 °F 26% 30.15 in - Variable 1.2 mph - N/A   Clear
2:00 PM 83 °F 43 °F 15%  in 6 mi NNW 3.5 mph - -   Partly Cloudy
2:00 PM 82.4 °F 42.8 °F 25% 30.09 in - NNW 3.5 mph - N/A   Clear
3:00 PM 84.2 °F 44.6 °F 25% 30.06 in - NE 3.5 mph - N/A   Clear
4:00 PM 84.2 °F 44.6 °F 25% 30.06 in - SSE 3.5 mph - N/A   Clear
5:00 PM 82.4 °F 42.8 °F 25% 30.06 in - ESE 9.2 mph - N/A   Clear
6:00 PM 78.8 °F 44.6 °F 30% 30.06 in - SSE 4.6 mph - N/A   Clear
7:00 PM 73.4 °F 44.6 °F 36% 30.06 in - SSE 5.8 mph - N/A   Clear
8:00 PM 69.8 °F 41.0 °F 35% 30.12 in - SE 6.9 mph - N/A   Clear
9:00 PM 66.2 °F 42.8 °F 43% 30.12 in - ESE 6.9 mph - N/A   Clear
10:00 PM 64.4 °F 37.4 °F 37% 30.15 in - SE 9.2 mph - N/A   Clear
11:00 PM 64.4 °F 33.8 °F 32% 30.15 in - SSE 9.2 mph - N/A   Clear